• In Belgium
  • List of Countries
  • For 7 days
  • Water Temperature
  • Satellite Maps
  • Weather Map
  • Weather Widgets
  • user-avatar
    Login

    Hourly Weather Maasmechelen

    Today, 25 April, Wednesday

    Time Temperature Precipitation Wind Pressure Humidity
    00:00 +12°C° 0 mm 4 mps 751 mmHg 85%
    01:00 +12°C° 0 mm 4 mps 751 mmHg 86%
    02:00 +12°C° 0 mm 5 mps 751 mmHg 87%
    03:00 +12°C° 0 mm 5 mps 750 mmHg 87%
    04:00 +12°C° 0.1 mm 5 mps 751 mmHg 87%
    05:00 +11°C° 0.1 mm 6 mps 751 mmHg 86%
    06:00 +11°C° 0.1 mm 6 mps 751 mmHg 86%
    07:00 +11°C° 0.1 mm 6 mps 751 mmHg 84%
    08:00 +11°C° 0.1 mm 6 mps 752 mmHg 82%
    09:00 +11°C° 0.1 mm 6 mps 752 mmHg 80%
    10:00 +13°C° 0.2 mm 6 mps 753 mmHg 76%
    11:00 +14°C° 0.2 mm 6 mps 753 mmHg 71%
    12:00 +14°C° 0.2 mm 6 mps 753 mmHg 67%
    13:00 +14°C° 0.3 mm 6 mps 753 mmHg 67%
    14:00 +14°C° 0.3 mm 6 mps 753 mmHg 67%
    15:00 +14°C° 0.3 mm 6 mps 752 mmHg 66%
    16:00 +13°C° 0.3 mm 6 mps 753 mmHg 69%
    17:00 +12°C° 0.3 mm 5 mps 753 mmHg 72%
    18:00 +10°C° 0.3 mm 5 mps 753 mmHg 74%
    19:00 +9°C° 0 mm 5 mps 753 mmHg 76%
    20:00 +8°C° 0 mm 5 mps 754 mmHg 78%
    21:00 +7°C° 0 mm 4 mps 754 mmHg 80%
    22:00 +7°C° 0 mm 5 mps 754 mmHg 82%
    23:00 +6°C° 0 mm 5 mps 754 mmHg 84%

    Tomorrow, 26 April, Thursday

    Time Temperature Precipitation Wind Pressure Humidity
    00:00 +6°C° 0 mm 5 mps 755 mmHg 86%
    01:00 +6°C° 0 mm 5 mps 755 mmHg 87%
    02:00 +6°C° 0 mm 5 mps 755 mmHg 88%
    03:00 +6°C° 0 mm 5 mps 755 mmHg 88%
    04:00 +6°C° 0 mm 5 mps 755 mmHg 86%
    05:00 +6°C° 0 mm 5 mps 755 mmHg 85%
    06:00 +7°C° 0 mm 6 mps 756 mmHg 83%
    07:00 +8°C° 0.1 mm 6 mps 756 mmHg 78%
    08:00 +9°C° 0.1 mm 6 mps 756 mmHg 72%
    09:00 +10°C° 0.1 mm 7 mps 756 mmHg 67%
    10:00 +10°C° 0.2 mm 7 mps 756 mmHg 63%
    11:00 +11°C° 0.2 mm 7 mps 756 mmHg 58%
    12:00 +12°C° 0.2 mm 7 mps 756 mmHg 54%
    13:00 +13°C° 0.2 mm 6 mps 756 mmHg 54%
    14:00 +13°C° 0.2 mm 6 mps 756 mmHg 53%
    15:00 +13°C° 0.2 mm 6 mps 756 mmHg 53%
    16:00 +12°C° 0.1 mm 5 mps 756 mmHg 58%
    17:00 +12°C° 0.1 mm 4 mps 756 mmHg 63%
    18:00 +11°C° 0.1 mm 3 mps 756 mmHg 68%
    19:00 +9°C° 0 mm 2 mps 756 mmHg 72%
    20:00 +8°C° 0 mm 2 mps 757 mmHg 76%
    21:00 +7°C° 0 mm 2 mps 757 mmHg 80%
    22:00 +6°C° 0 mm 2 mps 757 mmHg 81%
    23:00 +6°C° 0 mm 2 mps 756 mmHg 83%

    Day after tomorrow, 27 April, Friday

    Time Temperature Precipitation Wind Pressure Humidity
    00:00 +6°C° 0 mm 2 mps 756 mmHg 84%
    01:00 +5°C° 0 mm 2 mps 756 mmHg 84%
    02:00 +5°C° 0 mm 2 mps 755 mmHg 84%
    03:00 +5°C° 0 mm 2 mps 755 mmHg 83%
    04:00 +6°C° 0 mm 2 mps 754 mmHg 81%
    05:00 +7°C° 0 mm 2 mps 754 mmHg 78%
    06:00 +8°C° 0 mm 3 mps 753 mmHg 75%
    07:00 +10°C° 0 mm 3 mps 753 mmHg 69%
    08:00 +12°C° 0 mm 3 mps 752 mmHg 63%
    09:00 +13°C° 0 mm 4 mps 752 mmHg 56%
    10:00 +15°C° 0 mm 4 mps 752 mmHg 54%
    11:00 +16°C° 0 mm 5 mps 751 mmHg 51%
    12:00 +17°C° 0 mm 5 mps 750 mmHg 48%
    13:00 +17°C° 0 mm 5 mps 750 mmHg 48%
    14:00 +19°C° 0 mm 6 mps 749 mmHg 49%
    15:00 +19°C° 0 mm 6 mps 749 mmHg 49%
    16:00 +17°C° 0 mm 6 mps 749 mmHg 56%
    17:00 +15°C° 0 mm 5 mps 749 mmHg 62%
    18:00 +14°C° 0 mm 5 mps 749 mmHg 69%
    19:00 +13°C° 0 mm 5 mps 750 mmHg 72%
    20:00 +12°C° 0 mm 5 mps 750 mmHg 75%
    21:00 +9°C° 0 mm 5 mps 751 mmHg 78%
    22:00 +9°C° 0 mm 5 mps 751 mmHg 79%
    23:00 +8°C° 0 mm 5 mps 751 mmHg 79%

    28 April, Saturday

    Time Temperature Precipitation Wind Pressure Humidity
    00:00 +7°C° 0 mm 5 mps 751 mmHg 80%
    01:00 +6°C° 0 mm 5 mps 751 mmHg 82%
    02:00 +6°C° 0 mm 5 mps 751 mmHg 84%
    03:00 +6°C° 0 mm 5 mps 752 mmHg 85%
    04:00 +6°C° 0 mm 5 mps 752 mmHg 85%
    05:00 +6°C° 0 mm 5 mps 752 mmHg 84%
    06:00 +7°C° 0 mm 5 mps 753 mmHg 84%
    07:00 +7°C° 0 mm 4 mps 753 mmHg 81%
    08:00 +8°C° 0 mm 4 mps 753 mmHg 78%
    09:00 +10°C° 0 mm 4 mps 754 mmHg 76%
    10:00 +11°C° 0 mm 4 mps 754 mmHg 73%
    11:00 +11°C° 0 mm 3 mps 754 mmHg 70%
    12:00 +11°C° 0 mm 3 mps 754 mmHg 67%
    13:00 +13°C° 0 mm 2 mps 753 mmHg 64%
    14:00 +14°C° 0 mm 2 mps 753 mmHg 61%
    15:00 +14°C° 0 mm 1 mps 753 mmHg 59%
    16:00 +13°C° 0 mm 2 mps 753 mmHg 63%
    17:00 +13°C° 0 mm 2 mps 753 mmHg 67%
    18:00 +11°C° 0 mm 3 mps 753 mmHg 71%
    19:00 +10°C° 0 mm 3 mps 753 mmHg 72%
    20:00 +9°C° 0 mm 3 mps 753 mmHg 73%
    21:00 +8°C° 0 mm 3 mps 753 mmHg 75%
    22:00 +8°C° 0.9 mm 3 mps 752 mmHg 79%
    23:00 +7°C° 0.9 mm 4 mps 752 mmHg 83%

    29 April, Sunday

    Time Temperature Precipitation Wind Pressure Humidity
    00:00 +7°C° 0.9 mm 4 mps 751 mmHg 87%
    01:00 +7°C° 3.7 mm 4 mps 751 mmHg 90%
    02:00 +6°C° 3.7 mm 4 mps 750 mmHg 92%
    03:00 +6°C° 3.7 mm 4 mps 750 mmHg 95%
    04:00 +6°C° 0.6 mm 5 mps 749 mmHg 94%
    05:00 +7°C° 0.6 mm 5 mps 749 mmHg 94%
    06:00 +7°C° 0.6 mm 5 mps 749 mmHg 94%
    07:00 +8°C° 0.2 mm 4 mps 749 mmHg 92%
    08:00 +10°C° 0.2 mm 4 mps 748 mmHg 91%
    09:00 +11°C° 0.2 mm 4 mps 748 mmHg 89%
    10:00 +12°C° 0.3 mm 4 mps 748 mmHg 86%
    11:00 +13°C° 0.3 mm 4 mps 748 mmHg 84%
    12:00 +14°C° 0.3 mm 4 mps 748 mmHg 81%
    13:00 +14°C° 0.1 mm 4 mps 747 mmHg 81%
    14:00 +15°C° 0.1 mm 4 mps 747 mmHg 80%
    15:00 +15°C° 0.1 mm 4 mps 746 mmHg 80%
    16:00 +14°C° 0.1 mm 5 mps 746 mmHg 83%
    17:00 +13°C° 0.1 mm 5 mps 745 mmHg 86%
    18:00 +12°C° 0.1 mm 5 mps 745 mmHg 89%
    19:00 +12°C° 0.4 mm 5 mps 745 mmHg 91%
    20:00 +10°C° 0.4 mm 5 mps 744 mmHg 92%
    21:00 +10°C° 0.4 mm 6 mps 744 mmHg 94%
    22:00 +10°C° 2.4 mm 6 mps 743 mmHg 94%
    23:00 +10°C° 2.4 mm 6 mps 743 mmHg 94%

    30 April, Monday

    Time Temperature Precipitation Wind Pressure Humidity
    00:00 +10°C° 2.4 mm 6 mps 743 mmHg 95%
    01:00 +10°C° 2.1 mm 6 mps 743 mmHg 94%
    02:00 +9°C° 2.1 mm 5 mps 742 mmHg 94%
    03:00 +9°C° 2.1 mm 5 mps 742 mmHg 94%
    04:00 +10°C° 0.1 mm 4 mps 743 mmHg 93%
    05:00 +10°C° 0.1 mm 4 mps 743 mmHg 92%
    06:00 +10°C° 0.1 mm 4 mps 743 mmHg 92%
    07:00 +11°C° 0.1 mm 4 mps 743 mmHg 88%
    08:00 +11°C° 0.1 mm 4 mps 744 mmHg 84%
    09:00 +10°C° 0.1 mm 5 mps 745 mmHg 81%
    10:00 +12°C° 0.1 mm 5 mps 745 mmHg 78%
    11:00 +12°C° 0.1 mm 5 mps 745 mmHg 75%
    12:00 +12°C° 0.1 mm 5 mps 746 mmHg 72%
    13:00 +12°C° 0.1 mm 5 mps 746 mmHg 71%
    14:00 +11°C° 0.1 mm 6 mps 746 mmHg 70%
    15:00 +11°C° 0.1 mm 6 mps 747 mmHg 69%
    16:00 +10°C° 0.1 mm 5 mps 747 mmHg 72%
    17:00 +11°C° 0.1 mm 4 mps 747 mmHg 74%
    18:00 +10°C° 0.1 mm 3 mps 748 mmHg 76%
    19:00 +9°C° 0 mm 3 mps 748 mmHg 78%
    20:00 +8°C° 0 mm 3 mps 749 mmHg 80%
    21:00 +7°C° 0 mm 3 mps 749 mmHg 82%
    22:00 +7°C° 0 mm 3 mps 750 mmHg 83%
    23:00 +5°C° 0 mm 3 mps 750 mmHg 84%
    Show more